Theta_e
341 342 343 344 344 345 345 345 346 347 349 351 352 353 356 356 357 357 359 360 360 358 357 357 355 355 356 354 353 357 360 360 360 361 361 361 362 361 360 360 362 361 360 360 359 358 358 358 357 358 358 357 357 355 358 357 360 360 360 361 357 357 355 356 357 357 353 349 353 350 351 355 354 359 357 355 355 356 358 359 360 360 361 362 365
340 340 341 343 343 344 344 344 346 345 348 350 350 352 356 356 356 357 359 359 359 359 359 359 359 356 354 354 355 355 357 357 358 360 359 359 362 360 360 360 361 360 360 359 359 358 358 357 357 357 357 357 358 358 358 359 360 359 358 358 360 356 355 353 356 354 350 343 343 344 347 349 353 353 353 351 352 353 355 359 360 357 355 357 362
337 338 340 341 342 342 343 343 344 346 347 348 350 352 355 356 357 359 359 359 359 360 361 359 360 360 357 357 356 356 360 361 359 360 361 359 360 361 360 360 360 360 360 359 359 359 358 357 357 357 357 358 357 357 357 357 360 358 359 356 354 358 357 360 360 357 345 346 349 346 339 340 349 350 349 349 349 350 353 352 354 353 353 357 361
335 337 337 339 341 341 342 342 344 345 347 347 349 351 353 355 358 359 359 359 360 361 361 362 362 362 362 361 360 359 358 361 361 361 361 359 359 360 360 360 359 360 359 359 359 359 360 358 358 358 359 359 359 357 357 356 360 360 358 358 358 351 349 350 356 359 354 349 340 340 339 341 333 340 345 348 348 347 348 349 352 353 354 359 362
335 336 337 338 339 339 341 342 343 344 345 347 348 350 350 354 357 358 358 359 360 361 361 362 361 360 360 360 360 359 360 359 358 357 359 360 360 359 359 361 361 361 362 362 362 362 360 360 359 359 360 360 360 359 358 358 361 361 361 360 359 352 346 347 353 354 356 357 346 343 340 337 336 339 340 346 345 344 346 347 351 353 352 359 359
337 336 336 337 338 339 341 342 341 343 345 347 349 350 351 354 357 358 359 359 359 361 362 361 359 357 356 354 353 353 353 354 353 354 355 356 355 360 362 361 361 362 362 363 362 363 362 361 360 359 359 360 360 360 360 360 361 361 361 360 358 361 357 349 348 360 355 356 356 351 347 338 339 344 342 336 356 346 348 348 350 350 352 357 365
338 337 337 336 338 338 339 340 341 342 344 347 348 350 352 354 357 357 358 359 359 360 362 360 359 358 357 355 354 354 353 355 360 359 358 360 362 362 363 363 362 361 362 362 363 364 364 364 362 361 361 362 363 362 360 361 360 360 363 362 361 364 360 353 348 346 357 357 353 350 350 352 347 346 340 345 338 348 347 344 346 350 351 353 355
338 337 338 338 338 338 338 340 340 341 344 346 347 349 352 354 356 357 358 358 359 360 360 360 358 357 357 357 356 355 352 356 358 360 362 363 362 362 363 363 364 363 362 364 364 364 365 364 362 362 362 362 362 361 361 362 362 363 365 366 367 365 361 356 352 347 345 349 354 352 351 355 356 352 351 346 343 341 341 346 347 348 349 348 350
339 338 338 338 338 338 339 339 341 342 343 344 346 349 351 354 355 357 357 358 359 360 359 359 359 358 357 357 355 356 356 357 358 359 360 362 362 364 365 364 365 365 364 364 365 365 365 366 364 363 362 362 364 363 364 364 364 363 365 365 365 366 363 360 358 355 349 344 352 354 354 354 354 355 355 356 347 342 337 340 343 348 348 348 350
340 340 340 339 340 340 340 341 341 341 343 346 346 348 350 352 354 355 355 357 358 359 359 359 359 359 357 357 356 356 356 358 357 358 360 362 361 363 365 365 364 364 365 366 366 366 366 367 365 364 364 363 364 365 366 366 367 367 366 365 365 363 366 362 357 357 354 353 352 355 353 352 352 352 347 346 347 350 341 339 342 343 342 346 352
339 340 341 341 342 341 341 340 341 342 343 345 344 346 348 350 352 353 355 356 358 358 359 358 358 358 357 356 356 356 356 357 355 357 359 360 361 362 363 364 365 364 364 366 366 366 367 367 365 365 366 367 367 368 368 365 365 364 366 368 367 364 362 362 359 359 357 356 354 355 351 347 345 344 345 346 347 345 344 340 341 343 341 342 349
339 340 341 342 342 342 342 341 342 342 343 343 344 345 347 349 351 352 354 355 356 357 358 357 357 357 357 357 356 357 357 355 355 355 358 359 360 361 363 364 364 365 367 365 365 364 367 365 367 367 367 367 367 369 370 368 366 366 366 366 366 366 367 362 359 358 354 356 351 348 351 349 351 349 347 352 352 350 348 345 343 347 348 344 347
339 340 341 341 341 342 341 342 343 344 343 344 343 344 346 349 351 351 352 354 355 356 357 357 357 357 356 356 357 358 357 356 356 356 359 359 360 361 363 362 363 362 363 363 364 365 366 365 364 366 367 369 369 369 369 371 370 367 368 365 364 365 364 362 359 356 354 350 349 349 348 349 351 353 353 350 352 354 354 345 344 345 342 343 349
338 339 340 341 342 342 343 343 344 344 344 344 344 345 346 346 350 350 352 354 355 355 356 357 357 358 358 357 357 357 357 357 356 355 357 359 361 361 360 360 362 362 362 364 365 366 366 367 366 366 369 370 372 372 371 372 372 368 367 365 363 365 366 363 360 357 359 358 357 354 350 350 350 352 352 352 351 350 349 345 348 350 345 342 351
339 339 339 340 342 344 343 344 344 344 343 343 344 346 348 347 349 350 352 353 354 354 355 356 356 357 358 358 357 357 355 355 356 357 359 358 359 360 362 361 361 364 364 367 369 369 369 369 368 367 367 369 370 372 371 372 373 370 369 367 365 365 366 364 361 358 354 356 358 357 354 353 352 353 350 353 355 353 351 351 351 345 341 342 342
338 338 339 340 342 344 344 345 345 344 344 344 344 347 346 348 350 350 352 352 353 354 354 355 356 357 358 358 357 357 358 356 358 359 360 360 361 361 363 364 363 365 368 368 368 369 369 369 369 368 370 370 371 372 372 370 372 369 368 369 367 363 365 365 363 362 356 357 355 358 357 350 354 351 356 357 357 358 356 357 354 351 345 338 343
334 338 338 340 341 343 343 345 345 344 344 343 346 348 348 348 348 349 351 352 352 354 354 355 356 357 357 357 356 356 355 354 352 354 352 357 360 361 361 361 363 365 365 367 367 369 370 369 368 366 370 371 371 371 371 371 372 370 366 369 367 364 366 365 363 363 362 357 357 357 355 355 357 363 362 360 365 365 358 358 355 350 351 346 341
333 338 341 341 341 342 342 344 345 345 344 344 348 347 350 349 348 348 350 350 351 352 352 354 355 355 356 357 357 356 354 353 353 353 354 355 357 360 360 361 361 362 363 363 366 366 368 368 369 368 369 369 369 369 370 370 371 367 368 369 367 369 367 366 365 363 362 362 359 358 358 355 360 362 361 363 366 366 358 357 356 356 355 351 348
329 332 337 341 341 341 342 342 344 345 347 346 346 346 347 348 348 347 348 348 349 349 352 353 354 353 354 355 356 356 355 355 354 356 356 354 352 354 356 358 360 363 364 365 366 364 366 367 369 368 369 369 369 368 370 370 371 367 366 366 368 370 367 366 367 366 362 362 361 358 362 359 361 357 360 360 365 364 361 358 357 358 355 356 355
328 330 334 337 341 341 341 340 341 343 344 344 344 344 344 345 348 347 348 350 350 349 352 352 353 353 353 355 356 357 357 355 356 356 353 353 353 352 354 355 357 359 360 363 363 363 364 364 364 364 364 365 367 367 368 369 369 368 365 363 364 369 367 366 364 364 361 363 362 360 362 361 362 361 360 360 364 366 364 359 359 359 359 358 357
327 329 331 335 340 342 341 342 341 342 344 344 343 343 343 344 345 346 347 347 347 348 350 352 352 353 354 354 354 355 355 355 354 354 354 353 354 355 353 354 357 357 359 359 361 362 363 363 362 365 364 365 368 367 367 368 368 368 367 367 366 369 367 365 366 365 363 365 365 363 363 363 365 361 359 359 359 362 365 363 362 360 357 359 357
327 328 330 332 335 341 343 342 342 341 341 342 343 343 343 343 344 346 346 346 346 347 350 351 353 353 353 353 353 354 354 354 353 353 353 353 353 353 355 355 354 356 358 357 359 359 362 362 361 364 366 366 369 369 366 367 367 366 366 364 366 368 367 366 366 365 365 365 366 365 364 365 367 364 361 359 357 356 360 358 361 359 358 360 360
325 327 329 330 332 335 338 343 344 342 342 342 342 342 342 342 343 345 345 346 346 347 349 352 352 353 353 353 353 353 353 353 352 352 351 351 351 353 354 354 351 352 357 357 358 357 362 364 363 364 368 367 369 368 367 366 366 367 366 364 363 365 365 364 364 365 364 366 364 365 363 364 365 364 364 360 360 361 360 360 361 362 362 360 363
325 326 327 329 330 332 334 336 337 344 344 342 342 343 342 342 342 344 344 346 346 347 348 351 351 351 352 353 353 353 351 351 350 351 351 351 351 351 353 352 352 352 353 357 358 358 362 364 362 365 367 367 368 367 367 367 367 367 366 366 366 366 365 364 363 363 362 364 363 363 362 362 364 364 365 364 363 362 363 365 364 366 366 363 365
322 324 325 327 327 327 330 332 335 337 339 346 344 343 342 342 342 343 344 345 347 348 348 349 349 349 350 351 351 351 351 350 350 350 350 350 351 350 351 351 351 350 352 356 359 360 361 363 359 361 364 366 366 366 367 365 366 367 366 365 366 367 366 365 364 364 363 364 363 362 361 364 365 363 363 363 363 364 364 363 362 365 365 364 365
321 322 323 324 325 326 327 329 332 334 336 339 343 345 343 342 343 344 344 345 345 347 348 349 349 348 350 350 352 351 350 350 350 350 350 350 351 351 351 350 350 350 352 353 357 358 359 361 361 361 363 366 367 367 368 367 365 366 366 365 366 366 365 366 365 364 364 364 363 364 363 364 363 362 361 362 365 365 366 363 363 365 365 365 366
318 320 321 323 325 325 326 328 329 332 334 336 338 339 345 345 344 344 345 345 346 347 349 348 349 348 350 350 351 351 351 350 351 350 351 351 350 350 350 350 350 350 350 350 353 356 359 359 361 361 360 363 365 365 367 368 366 366 366 366 363 364 364 365 365 364 363 363 363 363 364 364 364 364 362 362 365 366 364 365 366 366 366 366 364
317 318 319 320 322 324 325 326 328 330 332 334 336 337 340 343 347 345 344 345 346 347 348 349 349 349 351 352 352 353 352 353 353 354 353 351 350 351 352 352 352 350 349 349 350 352 356 357 359 359 361 362 365 364 367 368 367 366 365 365 364 363 362 363 363 364 363 363 363 363 362 364 364 365 365 364 365 364 366 365 365 367 367 365 363
316 316 317 318 319 322 323 324 327 329 330 332 333 336 338 341 344 348 346 346 348 347 348 348 349 350 352 355 355 354 354 354 354 355 354 353 352 352 352 352 353 351 349 349 349 350 353 355 357 359 359 360 360 362 363 365 366 366 365 363 364 363 362 362 362 361 362 362 363 363 363 362 366 365 363 362 362 363 364 363 366 368 367 364 364
315 316 317 317 318 319 321 323 325 326 329 330 331 333 335 338 340 343 347 350 348 350 349 347 348 351 355 356 356 356 355 356 355 355 355 354 353 353 351 352 352 352 352 352 352 351 350 352 355 358 359 358 359 360 357 347 350 364 365 361 363 364 363 361 362 361 360 361 361 362 361 365 362 362 359 353 347 349 352 359 364 368 366 365 363
315 317 317 317 318 318 319 322 323 325 327 328 331 332 334 336 339 342 345 349 352 351 350 349 349 352 355 356 357 356 356 356 356 355 356 355 354 353 353 353 352 352 353 355 353 351 350 349 350 352 355 356 357 357 344 336 337 341 358 363 362 364 364 363 361 362 361 359 360 362 363 364 365 360 360 350 346 342 344 344 346 355 364 366 364
314 316 318 317 317 317 318 319 322 323 325 327 328 331 333 334 338 342 344 348 351 352 349 351 352 355 356 356 355 356 356 356 356 356 356 356 355 354 354 354 353 352 354 354 353 352 352 351 349 350 350 352 355 346 334 332 333 333 341 360 360 360 360 361 360 359 360 360 360 361 362 361 364 366 366 365 355 346 341 341 340 342 346 352 353
315 316 317 318 317 318 318 319 321 321 323 324 326 328 330 333 336 341 344 347 350 351 352 352 353 353 356 356 357 357 357 356 357 357 358 358 357 355 354 354 352 353 353 353 353 352 353 353 351 351 349 350 352 340 331 330 330 330 331 345 356 359 357 358 358 359 359 361 362 362 361 362 360 365 364 365 369 367 346 338 339 341 342 341 338
316 316 317 319 320 319 319 321 321 322 322 324 326 326 329 332 336 340 340 344 346 351 355 353 353 355 355 357 358 357 356 357 358 358 358 357 356 356 354 354 353 354 354 353 352 353 353 355 353 353 353 352 352 341 329 327 327 327 328 335 356 355 358 357 358 359 358 360 362 362 362 362 363 364 366 365 366 368 369 366 360 359 360 357 343
315 317 318 319 320 321 320 320 320 321 322 322 324 325 327 330 333 335 336 338 341 344 348 355 355 355 355 356 357 357 357 358 358 358 358 357 356 357 355 354 353 353 354 354 352 352 352 354 353 353 353 353 352 336 326 324 323 323 325 329 354 353 354 357 358 359 362 361 363 362 363 362 365 366 366 365 366 366 368 367 367 365 364 365 366
316 317 318 319 321 322 322 321 322 321 320 321 322 326 326 327 330 331 333 334 335 338 340 343 348 356 354 356 355 356 357 358 358 358 357 357 357 358 357 356 355 354 355 354 355 353 353 352 352 352 351 351 353 332 325 323 322 322 323 343 353 355 354 355 358 361 361 363 363 363 363 363 363 365 358 344 353 366 366 366 365 365 365 365 365
318 318 318 320 322 324 325 324 323 321 320 320 323 325 326 327 327 328 330 330 330 332 335 338 339 341 347 356 354 354 356 356 357 356 356 356 357 358 358 358 356 354 353 353 354 353 355 353 352 352 351 352 353 338 323 320 320 320 325 348 353 356 356 356 357 361 362 362 362 363 364 362 363 365 352 334 335 348 363 363 363 363 363 362 362
318 319 319 320 321 324 325 324 323 323 322 322 323 325 327 326 326 326 327 328 328 328 330 333 335 336 339 345 356 357 357 356 357 356 356 356 356 357 357 358 356 354 352 353 355 355 355 355 353 352 352 352 352 342 321 318 317 318 330 350 354 355 356 358 358 360 361 361 362 359 363 364 363 363 342 331 330 345 360 361 362 361 361 360 362
315 317 318 319 321 323 324 323 323 322 323 323 323 325 326 326 326 325 326 325 326 327 327 328 330 334 336 340 348 358 359 356 356 356 355 356 356 357 357 358 356 356 355 356 356 355 355 356 354 353 349 350 352 345 322 318 316 316 329 352 354 355 355 356 357 358 360 361 363 360 358 356 359 354 336 330 327 342 360 361 362 361 359 359 360
313 316 318 320 322 323 323 322 320 323 324 322 322 323 326 326 326 326 325 324 324 326 328 330 331 332 333 336 341 349 359 359 358 358 358 358 359 358 358 357 357 356 356 356 356 356 355 355 356 355 354 352 352 354 349 317 315 314 318 349 355 353 353 354 357 356 358 361 361 363 357 336 333 333 330 325 323 326 356 362 362 360 359 358 362
312 313 319 319 319 319 320 321 323 324 324 322 322 323 324 325 325 325 323 323 325 327 329 330 330 331 332 333 336 340 347 359 362 360 360 360 360 359 358 358 357 357 357 357 357 357 356 356 356 357 356 355 355 354 355 318 314 313 315 326 354 354 354 354 356 356 356 356 359 360 360 342 327 326 325 322 319 318 332 360 362 361 361 361 357
314 316 316 317 317 319 320 320 323 324 324 322 322 323 324 325 325 324 324 325 326 327 328 329 329 330 332 333 335 337 340 345 358 362 362 362 363 362 361 361 360 360 359 359 360 358 357 357 358 358 358 357 356 346 356 326 315 313 313 315 345 355 354 355 354 356 356 355 356 358 361 346 326 324 322 320 316 317 319 353 360 336 335 333 359
312 313 314 315 315 317 318 320 321 323 325 324 323 323 324 325 324 324 325 326 326 326 326 327 329 330 331 332 334 336 337 339 343 356 362 362 364 363 364 364 363 361 361 360 360 359 358 357 358 358 359 359 360 357 334 349 318 313 311 312 320 339 334 357 354 354 355 355 357 359 359 345 325 319 318 318 317 316 319 339 330 328 327 328 341
313 313 313 315 315 317 318 321 322 324 325 325 323 323 324 324 325 325 326 326 326 325 326 327 328 329 331 332 334 335 337 338 340 344 351 353 359 361 362 363 363 361 359 358 359 359 358 357 356 357 359 359 362 361 343 331 337 313 312 310 312 318 328 349 354 353 355 356 357 359 355 332 320 314 314 316 317 317 333 322 319 323 326 331 350
312 312 315 315 315 316 318 321 323 324 325 325 324 323 324 324 326 327 326 325 325 326 326 327 327 328 329 330 332 334 337 340 342 344 344 349 354 358 359 362 363 361 360 359 358 359 359 358 357 356 357 360 360 361 362 345 327 321 313 311 312 314 317 322 347 353 355 356 342 332 330 324 320 316 315 316 317 317 316 320 319 320 329 348 351
313 313 314 315 316 317 318 319 322 324 324 324 323 324 324 325 325 326 325 325 325 326 327 327 327 327 328 330 331 332 334 339 343 345 346 348 350 355 356 360 361 360 360 359 358 358 358 359 358 358 358 360 361 362 362 363 340 331 321 313 313 313 316 318 328 346 336 333 330 325 324 323 323 326 337 342 345 345 322 318 320 325 342 347 351
312 314 315 315 316 315 316 318 319 322 324 323 323 324 325 325 324 323 324 324 325 326 327 328 326 325 327 329 331 331 333 335 340 347 348 348 351 354 354 356 358 358 359 359 359 358 357 357 357 357 358 359 361 360 361 362 362 355 348 337 323 324 315 316 327 339 337 345 344 340 344 333 334 332 333 336 338 340 342 335 335 337 343 347 350
313 314 315 315 315 315 316 318 319 322 324 323 322 323 324 325 323 323 323 323 324 325 326 325 325 325 326 327 329 330 330 331 334 339 341 345 350 350 353 354 357 359 358 358 359 358 357 357 357 358 358 358 359 360 361 362 361 360 356 352 343 337 336 334 335 340 346 349 351 340 339 348 350 351 349 349 350 353 352 350 348 346 346 347 349
312 313 314 314 314 315 316 318 318 322 324 324 323 323 324 323 322 323 323 322 322 323 323 325 325 326 326 328 328 327 327 327 330 334 340 342 344 347 348 350 356 360 362 360 359 360 360 361 361 361 359 358 360 360 362 341 361 338 353 358 352 345 344 343 334 327 346 349 352 352 352 351 352 350 350 352 352 353 353 354 355 354 353 353 353
313 313 314 314 315 316 316 317 318 322 323 323 322 323 323 322 321 321 321 321 321 321 322 323 325 325 325 325 325 325 325 327 328 330 333 337 338 325 335 349 350 340 331 324 322 352 363 364 362 363 365 361 361 364 340 326 322 320 319 324 328 326 324 336 329 320 336 348 349 350 351 351 352 351 351 351 352 353 354 354 356 344 353 354 354
312 312 313 313 314 316 316 317 319 322 323 323 323 322 322 321 321 320 319 319 320 320 320 321 323 324 323 323 323 323 324 326 327 328 330 330 333 338 318 314 320 328 323 316 314 313 315 324 354 363 360 335 333 332 330 319 314 315 314 313 314 314 313 315 316 332 338 343 347 348 348 350 350 352 352 352 352 353 353 355 355 356 355 353 351
Wind_Speed
14 15 15 15 15 13 12 11 11 12 12 12 12 12 11 11 10 11 9 9 8 8 7 7 6 6 5 5 5 4 4 3 3 4 4 3 4 4 4 4 4 4 4 4 4 4 3 3 3 3 3 3 2 2 2 1 1 1 1 1 1 1 0 1 1 2 3 2 1 2 2 1 2 2 3 2 2 2 2 2 2 3 3 3 3
13 13 15 15 14 14 13 11 12 13 11 12 13 12 12 11 11 10 9 9 9 9 7 7 6 6 5 5 5 4 4 4 4 4 3 3 4 4 4 4 4 4 4 4 4 4 4 3 3 3 3 3 3 2 2 1 2 2 1 1 1 1 1 2 1 2 1 2 3 4 3 1 1 2 2 2 2 1 2 2 2 3 3 2 2
14 15 16 15 16 16 13 12 12 14 14 14 14 13 12 11 10 10 9 10 9 9 8 7 6 5 5 3 4 3 3 3 2 1 2 3 4 5 4 4 4 4 5 5 4 4 4 4 3 3 3 3 3 3 2 3 2 3 3 1 1 1 1 1 1 3 2 2 2 3 3 3 3 1 1 2 1 1 1 1 2 3 3 3 2
16 16 17 16 16 15 14 13 13 12 12 12 13 14 11 10 10 10 9 10 8 8 8 7 6 5 4 3 4 4 2 2 2 2 2 3 4 4 4 5 5 4 5 5 4 4 4 4 3 3 3 3 2 3 3 3 3 3 3 3 1 1 2 1 0 1 2 2 2 3 3 3 3 5 5 3 1 1 1 1 1 2 2 2 3
16 17 17 16 16 16 15 14 13 13 13 13 13 12 9 13 12 11 10 10 8 8 9 8 7 6 5 3 3 3 1 2 2 3 3 3 3 4 5 6 5 4 5 5 4 5 4 4 3 3 3 3 3 3 3 3 3 3 3 3 3 1 1 0 1 1 2 1 2 2 0 1 5 4 6 1 3 2 3 2 1 3 3 2 3
15 17 17 17 17 16 15 15 15 13 13 13 13 14 13 12 12 12 9 9 9 9 10 8 8 8 7 6 6 5 5 4 5 4 4 4 4 4 5 5 5 4 4 4 4 4 4 4 4 3 3 3 3 2 2 3 3 4 4 4 3 2 1 1 1 1 2 2 2 2 2 3 4 5 3 3 3 2 2 2 2 2 2 2 2
14 14 16 18 18 17 16 16 16 15 14 13 12 13 13 12 13 13 11 9 9 10 10 8 8 8 10 9 7 7 6 4 3 3 3 3 2 4 4 5 5 5 5 4 4 4 4 4 4 3 3 2 2 3 3 4 3 4 3 4 3 1 2 1 1 1 1 2 3 3 2 2 3 4 3 3 2 2 3 4 4 4 3 3 2
15 17 17 17 17 18 17 17 16 15 14 13 13 12 14 13 12 12 10 10 10 10 11 10 9 9 9 8 7 6 6 4 4 3 2 2 3 4 4 4 5 4 4 5 4 4 4 4 4 4 3 3 3 3 3 3 3 3 4 3 2 2 1 1 2 1 2 0 1 3 2 0 0 2 1 3 3 4 3 3 2 5 4 4 4
17 16 17 18 17 17 16 16 17 16 14 14 13 12 12 12 12 12 11 11 10 12 11 11 9 9 9 8 7 5 5 4 4 4 3 3 4 3 4 4 5 5 4 4 5 4 4 4 5 5 4 4 4 4 4 3 4 4 4 4 4 3 2 1 2 2 3 2 1 1 1 1 1 1 1 1 2 4 2 4 5 5 4 5 5
16 17 16 17 17 17 17 17 17 16 14 14 14 13 12 12 12 13 13 10 10 13 12 12 12 9 9 8 9 7 5 4 4 4 4 4 4 4 4 4 4 5 5 5 5 5 4 4 4 5 5 4 4 3 3 3 4 4 5 5 4 4 2 2 3 2 2 2 2 1 2 2 2 1 1 1 0 1 3 3 4 5 5 5 4
14 16 16 16 16 16 16 17 17 16 14 14 14 13 13 13 13 14 14 11 11 12 13 13 12 10 9 10 11 9 8 7 6 5 4 4 4 5 4 4 4 4 5 5 5 5 4 4 4 4 4 4 4 4 4 4 4 5 4 4 4 4 3 3 3 2 2 2 3 2 3 4 2 2 3 3 2 1 3 3 3 5 5 5 5
13 14 15 15 14 15 15 16 16 16 14 14 14 13 13 13 13 14 13 12 11 12 13 13 12 11 10 11 11 10 9 8 8 7 6 6 5 5 4 4 4 4 4 4 5 6 4 4 5 4 4 4 4 4 4 3 4 3 4 4 4 3 3 3 3 2 3 2 4 3 3 3 2 2 1 0 1 2 3 3 2 4 2 3 3
14 12 14 14 15 15 17 17 15 15 14 15 16 15 14 13 15 15 14 14 12 13 13 14 13 12 11 11 10 8 9 9 8 8 7 6 5 5 5 4 4 4 4 5 5 7 5 6 6 5 4 4 4 4 4 4 3 3 4 5 5 5 4 4 3 3 3 3 3 3 3 2 2 1 1 1 0 1 2 3 3 2 3 3 3
13 14 14 14 15 16 16 16 15 15 17 16 16 15 13 13 15 16 15 15 13 13 13 13 13 12 11 10 9 8 9 9 8 8 7 6 6 6 6 5 5 5 5 6 5 7 6 6 6 7 5 5 4 4 4 4 4 4 4 5 5 4 3 4 4 3 3 3 2 2 3 3 3 2 2 2 2 2 2 2 2 2 2 2 1
13 14 15 16 15 17 16 15 15 15 18 18 16 14 13 13 14 16 14 14 14 14 13 14 12 12 11 10 10 8 9 8 8 7 7 7 7 7 6 5 5 5 6 5 6 6 7 6 7 7 6 6 5 4 4 4 4 4 3 4 5 4 4 4 4 5 4 3 3 3 2 2 2 2 2 2 1 2 2 2 1 3 2 2 3
13 15 15 16 16 16 15 14 15 15 17 16 17 15 15 14 15 16 16 16 16 15 14 14 13 11 12 12 11 10 8 8 6 6 6 7 7 7 6 6 5 5 5 5 6 6 7 7 7 7 7 6 5 5 5 4 4 4 4 4 5 4 5 6 5 5 5 5 4 2 2 2 2 2 1 1 1 2 2 1 1 1 3 3 3
12 10 14 16 15 15 16 16 15 16 16 16 16 16 17 15 16 16 15 14 16 16 15 14 13 12 13 13 12 11 11 11 11 11 11 8 8 7 7 7 7 6 5 6 6 6 6 7 7 8 8 6 6 6 5 5 4 4 4 4 5 5 5 6 5 5 5 4 4 4 4 3 2 2 2 1 0 0 0 0 1 1 1 2 3
11 13 11 15 15 16 17 16 17 17 18 17 16 17 15 16 18 18 16 16 15 15 15 14 13 13 12 13 13 13 12 13 11 11 10 8 8 7 7 7 7 6 6 5 6 7 7 7 7 7 7 7 7 6 6 6 5 5 5 5 5 4 5 4 5 5 5 4 5 4 4 4 3 3 3 2 1 1 1 1 1 1 1 1 1
13 12 13 10 12 12 12 14 16 16 15 15 15 16 15 16 17 19 19 19 19 16 15 13 14 12 11 13 14 13 12 11 11 10 9 9 11 9 10 8 7 7 6 6 6 7 7 7 7 7 7 7 7 7 6 6 6 6 6 5 5 4 4 5 5 5 5 4 5 6 5 5 4 4 3 3 1 2 1 2 2 2 2 1 1
12 13 11 14 10 13 14 14 15 15 15 15 17 15 18 18 17 17 17 16 16 16 15 15 15 14 12 12 12 12 12 11 10 10 10 11 11 11 11 10 9 8 8 8 7 8 8 8 8 8 8 8 8 7 7 7 7 7 6 6 5 5 5 5 6 5 5 4 6 6 6 5 4 4 4 3 3 2 2 2 2 2 2 2 2
15 13 13 14 13 11 12 14 14 14 15 16 16 18 17 17 17 18 18 18 18 17 15 14 13 14 14 15 14 13 13 12 12 12 11 11 10 10 10 10 8 8 8 8 8 8 8 8 8 8 8 8 8 8 7 7 7 7 7 7 6 6 6 5 5 6 6 5 6 6 6 6 5 5 5 5 4 4 3 3 3 3 3 3 3
15 15 15 14 16 13 10 12 12 12 14 15 16 16 17 17 17 17 16 16 18 17 15 14 13 13 15 14 15 13 13 12 14 13 13 11 11 10 9 8 10 9 9 9 10 9 8 9 9 9 8 8 8 9 9 8 8 8 8 6 7 7 7 6 6 6 6 5 6 6 6 6 5 6 5 6 5 5 4 4 4 4 3 3 4
15 16 16 15 15 14 16 9 7 14 13 15 15 16 17 18 17 16 17 17 18 17 16 14 14 14 15 15 14 13 13 14 15 13 14 14 12 11 9 10 11 10 9 10 10 10 9 9 9 8 8 8 8 9 9 9 8 9 9 8 7 8 8 8 7 7 8 7 7 7 7 6 5 5 6 6 5 5 5 4 4 3 4 4 4
16 16 15 15 14 16 15 15 16 12 7 14 14 15 15 16 16 16 18 18 17 15 15 14 14 15 15 14 14 13 15 15 15 14 15 15 12 11 10 11 11 10 10 10 10 10 10 9 10 9 9 9 9 9 9 9 10 9 9 9 9 8 8 8 9 8 8 7 8 7 7 7 6 6 6 5 5 5 5 4 5 4 4 4 3
18 17 17 17 19 18 14 14 14 13 15 8 10 13 15 16 15 16 16 16 15 13 14 14 16 16 16 15 16 15 15 16 16 14 16 15 14 12 10 12 12 12 12 10 10 10 10 10 10 11 10 10 10 9 9 10 9 9 10 10 9 9 9 9 9 9 8 8 8 9 8 7 6 7 6 6 6 6 5 5 5 4 4 4 3
15 17 19 18 15 13 15 15 13 15 13 13 13 5 13 13 15 16 14 13 14 13 13 14 15 16 15 17 15 16 16 17 17 16 16 15 14 13 12 11 12 13 12 11 11 10 10 11 11 11 10 10 9 9 10 10 10 10 9 9 9 9 9 9 10 10 9 9 9 9 9 8 8 8 7 7 6 7 6 6 6 5 4 4 5
14 13 13 15 17 17 16 14 14 15 14 13 12 14 12 6 13 14 14 15 13 12 13 13 15 16 14 16 16 16 15 16 15 15 13 13 14 14 13 13 12 13 12 12 11 12 10 11 11 11 11 11 10 10 9 10 10 10 10 10 10 10 10 9 10 10 10 10 10 9 9 9 9 9 9 8 7 7 6 7 6 6 5 5 5
15 16 17 15 14 16 17 15 16 15 15 13 13 13 11 12 7 10 12 13 12 13 12 12 14 14 14 15 15 15 15 14 14 13 13 14 13 13 12 11 11 12 13 13 13 12 11 11 11 11 11 10 10 10 10 10 10 11 10 11 11 10 10 10 10 10 10 10 10 10 10 10 10 9 9 8 8 7 6 7 6 6 5 5 6
16 15 15 14 14 14 14 15 14 15 16 15 14 13 13 12 11 12 7 13 12 13 13 14 14 14 14 13 13 13 13 13 13 12 13 13 13 12 11 11 11 11 11 12 12 12 11 11 11 11 11 10 10 11 10 10 11 12 11 11 11 11 11 10 10 10 10 10 10 10 10 11 10 10 10 8 8 6 6 7 6 6 6 6 6
16 15 14 12 13 13 13 13 14 15 16 15 14 13 13 12 12 10 11 6 10 11 13 13 14 14 12 12 12 11 11 12 13 13 13 14 13 13 13 13 13 12 12 11 11 11 12 12 11 11 11 10 10 9 11 15 13 10 11 10 10 10 11 11 10 10 10 11 11 10 10 12 11 11 11 12 12 11 10 9 7 6 7 6 6
15 14 14 13 13 13 13 13 14 15 15 13 12 12 12 13 11 11 10 9 7 10 13 15 14 13 11 11 11 12 11 12 13 13 12 14 14 13 12 13 13 13 13 11 11 13 13 12 13 12 12 11 10 10 15 16 16 16 12 11 10 10 10 11 11 10 10 11 10 10 10 10 11 11 12 14 13 14 13 14 13 10 8 7 7
14 13 13 13 14 13 14 14 13 13 14 13 13 12 12 12 12 12 11 10 9 7 11 13 13 10 10 11 12 12 12 13 13 13 13 13 13 13 12 13 12 13 12 12 13 14 13 13 12 13 14 13 12 14 15 16 17 18 15 12 11 10 10 11 11 11 10 10 11 10 9 8 9 10 10 10 13 15 15 15 15 14 12 12 11
13 13 13 12 13 12 12 13 11 12 12 13 12 12 12 12 12 12 11 10 10 8 8 10 11 11 11 11 11 12 13 13 13 13 12 12 13 13 13 13 14 14 12 13 14 14 14 14 13 14 15 15 14 15 16 17 18 18 18 15 11 11 11 11 11 12 12 10 9 9 9 8 8 11 10 10 9 10 15 17 15 14 13 14 14
12 13 12 11 10 11 11 11 11 11 11 11 10 11 10 10 10 11 11 11 11 10 7 9 9 11 10 10 11 12 13 13 12 12 12 13 13 14 15 14 13 12 13 13 15 15 13 13 14 14 13 14 14 14 18 19 18 18 18 15 13 13 12 12 12 12 11 12 11 10 9 10 10 9 9 10 10 10 9 9 9 9 10 12 15
12 12 13 12 10 10 11 12 13 12 10 10 11 10 10 9 10 11 11 11 12 11 11 9 7 10 9 11 11 12 13 12 12 12 12 13 14 13 14 13 13 13 13 14 14 15 14 14 15 15 14 14 14 16 17 19 19 19 18 15 12 13 13 12 12 13 12 12 12 11 11 11 10 10 9 11 11 10 9 8 9 9 10 10 10
11 12 12 12 12 12 11 11 11 12 11 10 10 10 10 10 9 10 10 10 11 11 11 11 12 7 9 10 10 12 12 12 12 12 13 13 13 13 13 13 12 12 12 12 13 13 14 15 15 16 15 16 15 16 17 18 19 18 17 10 11 13 14 13 12 13 12 12 12 12 12 12 12 12 12 14 13 10 9 10 10 10 10 10 10
11 11 12 11 11 11 11 10 10 10 12 11 11 10 9 9 10 10 10 9 10 11 11 11 11 11 12 9 12 12 11 12 12 12 13 14 13 13 13 11 12 13 12 13 13 14 13 14 16 15 16 15 15 15 17 18 18 18 13 10 10 11 12 13 13 12 12 13 13 13 13 12 12 12 13 15 15 12 11 11 10 10 10 9 10
11 11 10 11 11 11 11 10 10 9 10 10 11 10 9 9 10 10 11 10 10 10 11 12 11 12 12 12 12 11 12 11 12 13 13 13 13 12 12 11 13 13 14 14 13 13 14 14 16 16 16 15 16 14 17 18 18 18 16 11 10 11 12 12 12 13 12 12 13 16 15 14 13 13 14 15 15 13 12 12 11 11 11 11 10
12 11 11 11 11 11 12 11 10 11 11 11 11 11 8 8 9 10 10 10 10 10 10 10 12 11 11 12 11 12 13 13 13 14 13 13 13 12 12 11 13 13 13 12 12 12 13 13 15 16 16 17 16 15 16 18 19 19 16 11 11 11 12 12 12 12 12 11 12 13 17 16 14 14 15 14 15 14 12 12 12 11 12 12 11
12 12 11 11 10 10 11 11 11 10 10 10 10 9 9 8 8 8 9 10 11 10 10 10 9 9 9 10 11 12 12 13 14 13 13 13 12 12 13 13 13 12 12 13 13 13 14 13 13 15 14 16 17 15 13 19 19 20 21 13 11 12 13 14 13 12 11 12 13 11 13 19 20 17 15 14 15 17 14 12 11 12 12 14 10
13 12 12 10 9 9 10 11 8 8 8 9 9 8 8 8 7 7 9 9 9 9 10 10 10 9 10 10 10 10 13 13 14 13 13 13 12 13 13 13 13 13 13 12 14 13 13 14 13 14 14 15 14 15 14 19 20 21 22 19 11 14 14 13 12 12 12 13 12 12 12 15 20 20 19 17 16 17 17 13 13 13 13 12 9
13 13 12 10 11 9 10 11 10 8 7 7 8 8 8 8 7 6 8 9 9 9 10 11 11 10 10 10 10 10 10 11 12 13 13 13 12 13 12 13 12 12 13 14 13 13 13 13 13 14 14 15 14 16 14 16 21 22 22 25 15 14 15 13 13 12 13 13 13 12 12 13 18 20 20 19 18 16 19 12 15 16 16 13 12
14 14 12 11 11 11 10 10 10 9 7 6 7 8 8 8 8 9 7 8 9 9 9 11 11 10 10 9 10 11 10 9 12 13 13 13 13 13 14 12 13 14 14 14 14 13 13 13 12 12 12 13 14 12 18 14 19 22 23 23 24 18 16 14 14 14 15 14 12 13 12 13 16 18 19 20 18 18 14 14 19 18 16 17 11
14 14 14 12 12 11 11 9 9 8 7 6 6 7 7 9 10 9 9 8 8 9 9 10 10 10 9 8 8 9 10 9 10 12 13 11 12 13 13 13 14 14 15 15 15 15 15 16 17 16 14 13 12 12 13 19 16 22 21 23 23 23 19 14 15 15 14 13 13 13 11 13 16 17 19 18 17 16 13 19 20 19 18 13 7
15 15 14 13 12 13 12 11 8 9 7 6 5 6 7 8 8 9 10 9 8 8 8 8 10 12 12 11 10 9 9 9 7 7 9 12 13 12 13 13 14 15 15 15 15 14 14 15 15 16 15 15 14 12 11 14 20 19 22 22 23 24 23 21 17 16 14 14 13 14 13 14 16 17 18 17 14 16 21 19 18 18 15 8 9
15 15 14 14 13 13 13 12 10 8 7 5 5 6 7 7 7 8 9 10 9 9 9 9 10 11 11 12 13 12 9 10 10 4 4 8 13 12 10 10 11 14 14 15 14 14 15 14 14 15 15 14 14 12 12 10 12 16 16 20 23 23 24 24 22 18 18 18 15 13 15 16 15 14 10 8 8 11 17 19 17 14 9 10 10
16 16 15 13 13 13 13 13 13 9 6 5 6 6 6 5 6 6 7 9 9 8 9 9 10 11 11 10 12 10 10 9 10 7 4 5 11 13 12 11 10 12 13 12 13 14 15 15 15 15 15 14 14 15 13 11 9 9 10 11 13 14 20 20 15 14 15 12 13 13 11 13 12 14 15 13 13 12 11 9 8 9 10 11 11
16 17 16 16 14 14 14 13 12 9 7 5 5 6 5 6 6 5 5 7 9 9 7 8 11 12 11 10 10 14 13 8 10 10 9 8 8 10 12 11 12 11 12 13 14 15 16 16 15 15 14 14 15 14 13 12 12 10 11 11 11 11 11 11 12 12 13 14 14 13 13 10 8 7 8 7 9 9 10 10 9 10 11 11 13
17 16 16 16 16 15 14 14 13 10 7 5 5 5 5 6 5 6 6 7 8 10 10 7 8 10 10 11 10 10 10 10 9 9 9 9 10 11 12 13 13 9 8 10 12 14 14 15 14 13 12 13 13 13 14 12 13 14 14 12 11 11 10 10 15 16 11 8 9 11 11 11 10 11 10 10 10 10 11 12 12 11 10 10 10
16 15 17 19 19 17 16 14 13 10 7 6 4 5 6 5 5 5 7 7 8 9 10 8 6 7 9 11 11 10 10 10 10 10 10 11 13 16 16 14 12 12 15 18 13 12 14 12 13 14 14 13 13 12 10 14 16 15 15 15 14 14 16 14 16 18 12 9 11 12 13 13 12 12 13 13 13 12 11 12 12 12 11 11 11
17 17 18 18 19 18 17 15 13 9 7 5 5 5 5 4 4 5 6 7 7 8 9 9 8 5 7 9 9 10 11 10 10 10 10 12 13 13 16 19 18 15 15 17 19 21 21 19 15 14 13 15 16 9 6 12 15 17 16 16 16 16 16 18 10 10 9 12 12 13 13 13 13 13 13 13 13 12 12 12 12 11 12 13 12
Wind_Direction
191 191 191 190 189 187 187 181 181 182 182 182 184 187 186 180 177 181 181 182 178 178 185 189 187 187 194 199 204 193 201 194 204 201 195 196 179 193 197 200 184 183 182 183 179 174 180 177 178 184 175 182 193 213 224 184 185 234 196 237 264 276 264 251 248 299 329 307 322 315 329 247 263 238 265 272 265 276 268 264 273 277 273 263 263
188 188 191 191 190 188 186 184 179 177 181 182 187 189 188 186 184 180 178 185 188 182 181 185 188 192 185 193 198 199 194 205 210 201 195 165 176 193 197 196 183 184 174 179 176 182 166 171 180 188 187 188 201 201 204 184 189 207 195 195 218 325 316 324 64 269 284 348 338 345 340 350 216 251 263 271 280 257 257 252 256 277 285 287 269
189 190 189 193 192 189 187 186 184 185 180 184 189 188 187 188 185 181 183 186 192 186 180 184 184 185 192 176 196 200 211 230 243 135 158 167 158 172 192 181 185 184 175 178 172 184 173 170 181 176 191 190 188 186 186 199 203 204 204 228 158 186 273 258 233 275 338 357 346 297 20 4 120 124 4 340 319 331 282 286 289 287 294 286 282
189 191 193 193 192 189 187 187 187 187 184 186 186 187 187 190 187 184 185 189 192 189 182 180 174 166 182 192 203 226 217 182 183 171 165 162 160 157 170 179 187 186 180 181 180 178 172 175 171 172 184 196 194 184 185 201 204 202 209 201 234 213 191 117 291 232 288 313 340 3 354 331 65 40 359 46 13 332 317 346 292 284 284 275 265
188 191 193 192 191 191 189 187 186 188 187 184 185 185 189 190 189 186 185 190 192 185 181 165 156 164 173 177 198 188 187 188 191 196 180 166 166 172 166 169 169 174 172 176 174 167 174 177 180 180 189 192 200 200 201 206 202 211 205 205 211 267 162 147 115 200 223 285 302 291 350 95 30 24 347 95 3 59 58 1 343 285 298 282 270
190 189 191 192 191 191 189 186 189 191 190 189 187 186 187 189 188 185 185 188 190 187 184 171 174 173 173 184 191 197 203 197 206 201 184 190 201 157 151 163 165 171 174 177 180 165 170 177 184 190 197 196 212 219 214 210 206 217 200 217 205 220 307 292 166 125 233 229 267 296 330 348 329 342 322 31 337 39 11 6 11 346 329 279 264
194 193 191 191 190 189 188 188 192 193 192 188 188 188 187 186 187 185 186 186 185 184 185 179 180 184 187 195 200 200 203 206 200 206 202 182 169 156 150 157 165 173 173 180 174 175 167 164 177 195 195 199 205 219 219 218 204 214 198 211 219 177 210 279 296 131 143 216 223 238 251 275 307 309 10 329 24 21 10 15 35 13 355 331 306
193 196 194 194 192 190 189 190 193 195 191 187 188 188 188 186 184 187 187 184 182 180 183 187 188 189 189 194 199 204 209 200 186 204 203 184 180 177 158 159 161 173 172 173 180 181 176 169 181 192 198 201 209 223 225 216 200 203 211 215 210 217 204 271 319 314 281 224 189 246 231 7 334 264 317 351 324 331 353 17 31 23 19 36 21
197 194 194 194 192 191 189 189 192 194 189 186 187 189 187 185 183 188 189 185 181 180 183 191 195 190 190 190 195 201 203 199 185 193 200 194 195 175 173 160 158 166 180 177 180 182 182 179 185 198 203 203 205 213 215 203 209 206 201 203 209 202 212 251 278 280 279 278 201 221 249 259 225 99 123 237 336 334 352 11 9 10 30 43 25
202 201 197 195 192 190 187 187 190 192 190 187 186 186 185 181 184 187 191 190 184 182 186 190 195 190 190 192 193 190 188 191 191 189 197 187 199 190 179 174 173 171 176 185 180 189 189 194 192 195 201 208 211 217 211 202 206 212 213 215 214 219 197 227 258 279 272 283 266 282 231 232 256 237 243 312 310 327 330 340 15 6 3 14 7
205 204 202 198 193 190 188 190 189 188 189 185 185 186 185 183 185 187 191 189 186 185 186 190 193 194 195 193 195 193 186 185 187 195 190 188 202 198 190 181 183 182 177 175 189 188 190 200 215 203 209 197 206 205 213 216 210 210 210 213 220 228 222 229 250 248 233 234 227 231 243 256 286 325 352 355 332 333 331 339 10 14 354 357 10
210 205 205 198 190 190 188 190 185 185 185 184 186 183 183 184 184 187 188 187 187 188 188 192 193 196 198 192 195 194 185 189 195 195 188 195 202 201 188 178 183 185 185 178 185 188 185 204 218 224 220 217 207 207 211 221 227 220 218 214 219 218 231 232 246 241 224 220 237 221 234 252 246 270 13 103 336 354 326 329 357 347 326 1 5
203 212 205 200 194 188 190 188 181 179 183 185 188 186 183 182 182 184 188 188 188 189 191 192 192 196 195 195 197 193 193 194 196 196 187 193 196 199 188 191 182 193 195 198 192 188 182 197 209 213 219 222 221 206 210 210 222 222 219 219 222 219 218 222 225 236 228 232 237 242 247 253 241 213 230 288 26 276 284 314 4 1 319 353 8
198 205 210 204 199 196 195 188 180 181 185 186 188 187 184 183 182 186 189 186 186 189 193 193 195 195 193 193 192 191 197 197 198 202 194 192 192 200 202 196 189 197 195 200 198 189 191 189 197 210 217 222 219 214 216 213 204 220 215 223 223 220 218 224 240 245 236 236 238 243 234 228 240 211 200 248 255 268 294 316 337 304 285 3 358
199 201 206 210 203 198 197 188 183 184 188 188 187 185 178 179 180 186 186 184 185 189 191 196 196 196 194 194 192 192 198 197 200 199 190 190 198 203 199 200 199 193 196 196 190 187 191 189 193 204 207 217 218 218 216 212 208 210 217 231 235 220 217 219 231 235 232 216 213 221 248 222 226 221 216 202 280 303 313 320 299 341 356 351 31
214 205 202 207 203 195 198 196 190 188 186 186 186 182 182 184 182 187 186 182 186 188 192 195 197 195 192 192 195 195 194 195 193 192 196 192 192 198 195 196 203 193 196 196 195 196 194 193 195 203 203 203 208 216 220 220 207 212 215 215 230 218 217 217 230 232 238 229 229 207 219 237 203 211 218 204 274 330 331 257 214 238 352 359 360
340 243 204 203 199 196 199 198 194 191 187 187 184 179 181 182 184 188 190 185 187 188 190 192 194 193 194 194 195 197 198 201 204 202 204 196 195 197 201 202 198 200 197 197 204 202 203 200 198 202 196 198 201 208 217 220 210 216 224 221 234 227 216 222 226 225 243 234 227 213 226 229 220 214 230 212 203 249 15 207 238 300 12 345 354
337 336 239 211 204 199 200 199 197 193 191 192 183 182 181 182 184 187 187 187 188 189 192 192 191 194 195 196 197 198 202 206 206 200 195 189 192 193 199 194 200 198 199 198 199 202 205 203 203 200 198 196 202 209 211 214 210 219 220 224 236 234 229 227 223 231 230 227 232 221 217 226 206 219 218 215 189 184 148 190 216 239 257 341 350
357 347 336 252 208 202 195 198 200 196 191 192 186 187 187 187 189 190 190 190 188 190 191 191 191 193 196 197 197 198 202 204 205 198 191 194 200 196 201 201 194 191 192 195 198 205 204 203 206 206 198 196 195 207 204 208 209 222 217 222 214 212 227 234 224 219 230 222 224 229 220 233 224 241 243 227 199 199 179 188 200 220 229 255 267
360 355 346 338 259 205 197 194 198 195 192 194 192 194 195 194 190 192 193 191 190 191 188 188 190 192 194 195 197 198 199 201 200 195 201 203 202 200 199 198 200 196 199 197 205 210 208 209 209 210 209 203 197 202 204 206 208 221 225 229 214 201 218 230 237 222 230 215 222 228 226 231 225 231 238 232 215 210 205 210 202 211 220 236 226
8 5 1 355 341 230 206 199 198 198 196 193 194 195 198 197 195 193 188 188 190 192 191 191 189 194 192 191 194 196 200 202 206 204 205 207 204 202 201 205 189 200 197 200 206 211 212 214 219 213 210 201 195 195 199 202 209 216 222 225 222 203 212 225 229 230 227 220 222 229 232 229 225 232 231 229 225 206 200 212 207 214 229 205 221
15 14 15 11 8 349 215 192 194 194 194 196 196 194 196 197 199 196 194 193 192 191 192 189 191 192 195 196 200 198 199 199 203 204 207 209 208 203 200 191 198 200 195 204 205 210 213 215 218 215 209 204 194 193 198 201 207 213 217 215 217 208 208 219 224 230 225 225 221 225 228 223 209 230 232 228 227 223 218 226 207 220 230 222 209
21 21 22 23 17 16 11 347 232 198 195 201 198 198 196 199 198 196 197 196 196 194 191 187 188 190 194 197 197 198 195 199 204 207 210 212 210 207 199 200 208 206 198 203 203 208 206 208 215 216 210 209 200 198 200 201 205 209 213 220 218 211 211 215 215 221 227 223 224 226 232 228 212 220 224 236 231 232 240 243 243 231 235 244 206
26 24 24 24 28 25 19 13 13 357 254 207 200 197 195 197 198 199 200 198 197 194 190 186 188 194 195 194 195 197 197 200 205 209 212 212 212 208 200 205 208 208 200 198 200 201 200 203 211 214 213 212 206 204 202 202 204 208 213 216 216 215 217 218 222 222 222 218 223 229 237 235 226 225 230 232 232 235 231 232 242 237 233 243 235
25 25 23 24 27 23 19 16 13 8 8 335 220 195 196 195 194 199 201 201 198 196 193 189 190 195 196 198 200 198 200 202 206 209 211 210 211 208 202 206 208 212 209 196 195 196 198 200 210 214 214 212 211 207 207 210 208 210 213 217 218 217 217 218 221 223 220 219 222 229 236 231 226 235 237 234 233 226 231 236 240 234 232 239 235
19 23 23 24 23 20 21 17 14 18 11 7 2 277 208 198 198 194 192 191 203 199 197 192 193 196 197 199 198 200 203 203 204 208 210 209 209 208 206 204 208 212 210 206 197 196 197 200 207 210 212 212 210 209 209 212 212 211 213 218 221 221 223 220 220 221 221 222 226 226 229 229 229 233 241 243 237 231 231 236 239 238 236 232 236
19 20 18 20 19 18 17 15 16 17 16 14 9 9 356 270 209 200 190 188 195 195 196 195 196 198 199 200 197 199 201 203 203 206 207 208 209 209 208 207 205 211 213 213 209 203 199 202 202 206 211 212 210 212 211 211 214 214 213 215 223 224 225 225 225 225 223 222 225 228 229 228 228 228 235 238 236 232 232 236 230 232 228 227 237
17 20 19 15 12 15 14 12 13 13 14 14 15 12 3 1 333 222 198 191 188 191 189 195 198 202 201 199 200 199 201 201 202 200 204 207 208 210 209 209 206 208 213 217 216 210 206 205 206 207 210 209 207 210 211 211 212 213 213 215 219 225 227 227 229 228 229 228 225 227 232 232 230 228 230 232 232 236 232 235 231 225 224 228 244
19 16 14 11 11 8 5 9 8 11 11 11 11 7 6 1 359 352 253 203 191 189 190 194 197 201 203 198 196 199 199 199 198 195 199 203 206 206 205 205 205 211 214 218 219 219 213 210 210 209 209 207 209 210 210 209 208 210 214 217 217 220 224 228 231 232 231 232 231 229 231 234 229 226 226 231 237 229 236 242 237 221 223 230 239
17 14 9 5 5 4 4 3 8 11 9 8 5 4 2 0 359 351 353 294 202 189 194 203 203 202 199 193 193 195 198 197 195 199 199 201 204 203 204 205 209 211 213 213 216 217 219 214 210 209 210 211 212 213 206 202 203 207 208 216 216 218 222 226 228 232 234 232 233 235 235 227 219 211 213 218 226 229 228 242 244 228 224 227 233
15 12 9 4 1 3 2 4 7 5 5 4 359 358 354 359 356 356 347 341 305 211 197 202 208 204 194 189 192 197 198 195 199 202 200 202 204 204 206 207 208 208 209 206 207 213 218 222 219 217 214 215 217 218 206 199 204 208 213 214 214 216 215 220 225 226 232 235 235 233 238 224 212 211 216 214 218 220 225 230 238 243 240 232 236
8 5 7 5 2 2 1 1 360 2 1 358 358 353 355 353 354 355 347 338 329 294 224 211 209 199 190 191 196 198 198 201 200 203 203 200 202 202 204 203 202 204 203 207 211 215 218 219 220 220 221 220 222 220 205 201 203 206 210 218 220 222 220 220 224 228 230 232 233 234 232 234 229 227 227 210 209 215 218 223 228 229 232 238 242
1 2 3 3 1 357 358 353 357 358 357 356 352 351 354 349 347 349 345 346 342 318 272 227 214 208 203 196 198 198 199 202 202 201 200 196 198 202 205 206 209 209 208 209 215 215 215 215 219 220 224 224 227 215 204 203 204 204 206 213 228 226 224 224 224 224 228 228 228 230 234 232 236 214 221 231 227 211 209 218 223 224 228 229 231
2 359 356 356 357 357 351 353 356 352 356 348 348 348 342 343 342 341 354 354 352 348 316 257 219 210 207 205 201 201 204 205 203 200 199 199 201 206 210 211 212 207 207 208 212 216 217 215 218 221 224 227 228 216 201 203 204 204 204 204 225 228 229 230 227 226 226 226 225 226 225 228 231 226 221 224 227 231 226 211 212 218 226 222 221
1 353 351 351 350 350 349 351 354 350 351 349 347 348 340 343 352 352 356 359 358 357 2 343 257 217 212 211 207 206 207 205 203 199 200 203 205 208 210 211 211 208 206 207 211 215 216 216 217 220 224 228 229 218 200 202 204 204 202 199 221 228 233 233 229 227 225 225 224 225 227 230 229 224 220 215 223 226 226 228 228 226 226 233 226
351 349 346 343 345 345 346 345 341 346 349 353 346 340 343 346 349 2 357 1 357 358 1 356 358 324 240 222 219 214 211 210 204 203 203 206 207 206 206 207 213 217 217 216 214 217 217 218 220 223 227 232 234 214 202 202 203 204 197 198 215 224 230 234 231 227 224 223 224 226 227 230 231 229 214 203 213 224 229 230 231 233 236 236 233
338 343 340 335 335 336 338 335 340 341 346 347 344 342 342 348 352 356 357 359 3 359 355 355 348 345 343 302 242 226 221 215 210 207 208 209 208 207 207 205 212 218 220 219 218 217 219 222 222 221 224 230 236 215 200 202 201 199 188 207 211 219 226 230 232 228 225 224 224 223 223 228 230 229 217 196 206 209 231 235 235 237 240 241 242
334 331 333 339 335 334 331 334 334 342 343 337 336 340 343 354 355 352 353 352 2 0 353 345 341 344 332 327 318 259 228 218 215 214 213 214 213 212 212 205 212 215 221 223 221 221 221 222 223 224 222 227 233 221 197 200 198 191 191 203 210 214 224 226 231 230 230 230 228 221 223 225 228 230 218 197 197 194 221 230 235 239 241 242 242
336 331 331 333 334 326 323 326 334 341 342 336 333 333 344 354 356 352 351 349 350 350 348 339 336 330 329 325 313 304 255 230 221 220 220 219 214 213 211 207 212 216 223 225 224 227 226 225 226 227 222 226 235 230 198 197 194 190 192 208 210 216 222 225 224 228 228 230 230 219 215 222 227 231 222 200 189 189 217 223 230 237 241 244 243
327 331 331 326 318 317 319 329 335 335 332 334 332 330 337 350 354 348 349 346 343 338 330 331 324 318 324 319 318 310 291 251 231 221 221 219 215 213 212 210 213 216 220 221 222 224 226 228 227 227 227 225 232 237 205 193 191 191 192 202 212 215 223 222 222 224 225 225 227 229 214 213 222 228 227 208 192 194 211 222 225 233 239 241 244
322 324 326 317 318 315 314 317 323 322 328 333 332 326 330 336 343 354 348 336 332 329 328 327 326 329 326 320 314 316 313 285 247 234 224 220 217 219 218 217 218 218 219 221 223 224 226 230 230 230 232 230 230 229 217 186 191 189 194 199 210 216 219 220 221 219 224 228 227 226 234 208 208 219 225 219 201 199 207 221 224 231 232 238 243
319 318 316 315 315 313 308 313 318 322 326 328 328 325 325 327 328 351 340 325 329 332 328 323 331 334 329 320 317 314 311 311 281 246 235 224 223 223 222 220 220 217 217 220 221 223 228 232 233 233 234 234 227 217 228 188 190 191 194 199 210 216 213 218 222 226 226 230 230 229 228 207 197 209 218 221 211 200 207 216 228 230 235 234 237
317 314 313 314 313 311 307 302 305 313 322 321 320 322 326 328 330 335 334 330 326 332 330 325 324 325 323 322 321 317 318 316 314 290 253 240 232 227 226 225 224 225 225 226 225 226 228 233 236 236 236 233 231 220 212 206 189 194 195 200 210 218 209 214 224 227 226 228 228 228 229 206 195 204 212 218 214 207 202 220 228 231 233 234 233
307 307 309 310 307 304 302 297 294 300 307 311 313 314 322 327 330 328 329 330 329 327 326 327 323 321 319 318 316 320 315 312 304 309 308 275 247 237 234 232 230 230 230 232 236 236 237 240 242 244 242 238 231 231 204 207 196 194 197 200 207 217 214 215 221 232 231 230 229 225 224 206 201 205 211 214 214 203 211 218 223 228 233 233 233
308 307 308 305 301 303 301 295 287 287 292 296 298 304 315 322 326 328 330 331 328 323 321 326 325 323 322 321 322 321 317 304 294 304 303 298 283 255 243 235 235 235 234 234 236 235 234 236 237 239 243 243 240 230 230 200 202 193 199 201 205 209 218 217 222 231 235 235 231 225 220 210 209 210 211 213 213 211 216 221 218 222 226 227 224
304 303 304 303 300 295 294 292 287 274 275 280 287 294 304 312 321 323 325 324 324 327 322 326 325 324 323 323 321 324 324 313 304 277 283 293 289 276 257 252 237 236 235 236 234 233 235 236 237 237 238 240 240 239 232 217 191 201 200 203 204 208 214 217 220 229 229 232 234 224 219 217 216 215 210 209 213 212 216 220 221 216 217 222 222
304 303 304 300 299 294 291 292 290 284 270 269 284 293 289 307 316 317 322 322 322 320 322 322 325 323 323 321 323 324 329 322 312 307 286 262 275 274 265 257 250 242 235 232 232 232 235 235 236 237 236 238 238 240 234 224 204 192 199 198 206 216 219 220 222 233 239 241 236 233 227 220 223 211 211 217 221 223 213 211 215 211 216 218 217
301 300 300 297 289 284 284 288 287 283 268 259 268 281 293 308 313 309 317 318 310 311 317 321 322 324 322 324 324 328 329 327 321 322 320 309 295 296 291 269 252 245 245 240 236 236 235 233 234 234 235 235 234 234 226 220 216 205 200 194 191 197 203 201 213 218 219 226 232 228 227 232 225 224 219 225 226 222 219 211 208 205 209 214 219
301 299 298 294 290 285 283 282 282 281 270 264 262 273 293 306 310 313 318 319 313 310 310 311 321 324 322 324 325 326 323 319 314 308 302 291 285 279 278 279 285 294 277 261 252 248 239 240 239 237 229 229 231 227 223 210 213 207 205 205 195 198 198 203 212 210 206 220 225 231 231 219 218 221 223 223 220 215 217 219 218 212 210 209 210
298 298 295 293 288 283 280 279 279 276 269 259 257 272 291 300 309 312 318 315 314 310 307 311 318 322 324 326 324 322 319 313 312 310 307 298 284 267 261 272 280 279 286 291 288 271 261 253 248 244 238 232 226 228 218 199 206 209 210 209 211 202 203 210 212 197 203 216 216 225 224 222 220 220 223 224 223 218 218 219 221 215 216 219 215
298 297 295 293 290 285 282 279 276 273 260 243 257 276 288 294 301 312 316 311 312 310 305 306 315 321 326 322 319 316 316 311 309 312 311 306 302 295 269 253 249 259 264 266 265 262 267 267 257 257 246 232 243 254 219 196 201 210 208 209 211 211 204 212 180 124 197 218 227 223 224 223 222 223 223 223 222 220 218 219 223 217 215 219 219